"2016-05-09 00:00:00",1617051,1.955,32.35,8.18,0.652,11.65,103.766,8.92,9.99,49.16,0,110.2,13.23,9.70,354.4
"2016-05-09 00:00:30",1617052,3.126,49.8,22.84,1.521,13.81,103.7626,8.91,10.09,49.37,0,110.2,13.18,9.69,11.8
"2016-05-09 00:01:00",1617053,1.631,81.4,34.68,1.149,13.34,103.7627,8.91,10.07,49.36,0,110.2,13.18,9.69,43.4
"2016-05-09 00:01:30",1617054,2.019,37.87,13.1,0.55,11.74,103.7656,8.91,9.92,49.48,0,110.2,13.23,9.70,359.9
"2016-05-09 00:02:00",1617055,1.707,30.8,9.97,1.372,13.22,103.7659,8.92,10.02,50.03,0,110.2,13.18,9.70,352.8
"2016-05-09 00:02:30",1617056,2.747,43.05,9.06,1.618,13.56,103.7594,8.9,10.06,50.91,0,110.2,13.19,9.68,5.0
"2016-05-09 00:03:00",1617057,3.205,34.61,12.22,1.39,13.72,103.7414,8.85,9.97,51.59,0,110.2,13.19,9.64,356.6
"2016-05-09 00:03:30",1617058,2.111,21.11,14.72,1.526,13,103.7341,8.83,9.95,52.54,0,110.2,13.19,9.62,343.1
"2016-05-09 00:04:00",1617059,1.195,1.784,15.26,0.623,11.63,103.7344,8.83,9.84,52.2,0,110.2,13.24,9.62,323.8
"2016-05-09 00:04:30",1617060,1.709,11.79,14.39,1.161,12.64,103.7353,8.84,9.92,51.45,0,110.2,13.19,9.62,333.8
"2016-05-09 00:05:00",1617061,2.69,20.05,16.83,1.407,14.71,103.7356,8.84,10.01,51.18,0,110.2,13.2,9.62,342.0
"2016-05-09 00:05:30",1617062,0.681,3.03,21.41,0.502,11.42,103.7379,8.84,9.83,51.08,0,110.2,13.24,9.63,325.0
"2016-05-09 00:06:00",1617063,0.483,8.35,11.4,0.427,11.34,103.7388,8.85,9.84,51.18,0,110.2,13.24,9.63,330.4
"2016-05-09 00:06:30",1617064,0.69,12.63,10.99,0.532,11.37,103.74,8.85,9.84,51.25,0,110.2,13.24,9.63,334.6
"2016-05-09 00:07:00",1617065,1.41,25.72,5.652,0.245,11.63,103.7414,8.85,9.82,51.02,0,110.2,13.25,9.64,347.7
"2016-05-09 00:07:30",1617066,2.296,27.33,10.81,1.277,13.63,103.744,8.86,9.96,50.88,0,110.2,13.2,9.64,349.3
"2016-05-09 00:08:00",1617067,2.935,26.51,11.12,1.408,15.35,103.7484,8.87,10.07,50.92,0,110.2,13.2,9.65,348.5
"2016-05-09 00:08:30",1617068,1.466,22.25,12.93,1.062,13.54,103.7484,8.87,9.92,51.13,0,110.2,13.2,9.65,344.2
"2016-05-09 00:09:00",1617069,0.94,31.79,5.37,0.199,11.57,103.7499,8.87,9.83,51.19,0,110.2,13.24,9.66,353.8
"2016-05-09 00:09:30",1617070,1.518,20.53,11.25,1.386,13.37,103.7499,8.87,9.99,51.38,0,110.2,13.2,9.66,342.5
"2016-05-09 00:10:00",1617071,2.169,24.56,7.615,1.357,13.46,103.7497,8.87,9.94,51.37,0,110.2,13.2,9.66,346.6
"2016-05-09 00:10:30",1617072,1.135,23.81,6.415,0.283,11.24,103.75,8.87,9.82,51.2,0,110.2,13.25,9.66,345.8
"2016-05-09 00:11:00",1617073,0.911,20.03,8.05,0.384,11.22,103.749,8.87,9.83,51.24,0,110.2,13.25,9.66,342.0
"2016-05-09 00:11:30",1617074,1.99,43.91,8.82,0.367,11.14,103.747,8.87,9.83,51.44,0,110.2,13.25,9.65,5.9
"2016-05-09 00:12:00",1617075,1.472,59.55,9,0.194,11.5,103.7456,8.86,9.82,51.92,0,110.2,13.25,9.65,21.5
"2016-05-09 00:12:30",1617076,1.791,83.7,14.88,1.28,13.11,103.742,8.85,9.94,52.15,0,110.2,13.2,9.64,45.7
"2016-05-09 00:13:00",1617077,3.198,105.4,16.92,1.573,14.48,103.7366,8.84,10.07,52.26,0,110.2,13.2,9.62,67.4
"2016-05-09 00:13:30",1617078,2.729,119.2,8.46,1.256,13.21,103.7274,8.82,9.96,52.25,0,110.2,13.2,9.60,81.2
"2016-05-09 00:14:00",1617079,2.581,128.5,9.13,1.349,12.9,103.7251,8.81,9.95,52.31,0,110.2,13.19,9.59,90.5
"2016-05-09 00:14:30",1617080,2.68,113.2,8.98,1.08,12.75,103.7263,8.81,9.96,52.23,0,110.2,13.19,9.60,75.2
"2016-05-09 00:15:00",1617081,1.855,101.8,15.77,0.338,11.35,103.7263,8.81,9.83,51.89,0,110.2,13.23,9.60,63.8
"2016-05-09 00:15:30",1617082,1.216,89.5,21.36,0.552,11.24,103.7263,8.81,9.82,51.71,0,110.2,13.23,9.60,51.5
"2016-05-09 00:16:00",1617083,0.928,32.29,9.63,0.263,11.15,103.722,8.8,9.79,51.63,0,110.2,13.24,9.59,354.3
"2016-05-09 00:16:30",1617084,0.599,26.71,6.365,0.363,11.4,103.711,8.78,9.79,51.61,0,110.2,13.24,9.56,348.7
"2016-05-09 00:17:00",1617085,1.673,46.52,13.62,1.086,12.82,103.6952,8.73,9.91,51.58,0,110.2,13.2,9.52,8.5
"2016-05-09 00:17:30",1617086,2.317,65.45,9.32,1.325,13.99,103.6924,8.73,9.9,51.36,0,110.2,13.19,9.51,27.4
"2016-05-09 00:18:00",1617087,2.739,66.38,9.3,1.458,14.85,103.6924,8.73,9.94,51.49,0,110.2,13.19,9.51,28.4
"2016-05-09 00:18:30",1617088,1.372,77.44,9.6,0.548,12.11,103.6924,8.73,9.91,51.7,0,110.2,13.2,9.51,39.4
"2016-05-09 00:19:00",1617089,3.282,92.3,9.43,1.393,14.22,103.6924,8.73,9.92,51.98,0,110.2,13.2,9.51,54.3
"2016-05-09 00:19:30",1617090,2.337,96.6,13.75,1.368,12.97,103.6921,8.73,9.84,52.05,0,110.2,13.2,9.51,58.6
"2016-05-09 00:20:00",1617091,1.645,88.4,8.59,0.175,11.26,103.6887,8.72,9.72,51.84,0,110.2,13.25,9.50,50.4
"2016-05-09 00:20:30",1617092,1.822,93.7,5.601,0.166,11.18,103.6814,8.7,9.72,52.25,0,110.2,13.25,9.48,55.7
"2016-05-09 00:21:00",1617093,1.27,86.2,8.15,0.118,11.48,103.6647,8.66,9.73,52.21,0,110.2,13.25,9.44,48.2
"2016-05-09 00:21:30",1617094,1.606,76.67,9.52,1.184,13.17,103.6588,8.64,9.79,51.8,0,110.2,13.2,9.42,38.7
"2016-05-09 00:22:00",1617095,1.69,64.31,10.94,1.323,14.06,103.6585,8.64,9.88,51.65,0,110.2,13.2,9.42,26.3
"2016-05-09 00:22:30",1617096,0.758,39.21,10.94,0.975,12.28,103.6585,8.64,9.69,51.33,0,110.2,13.21,9.42,1.2
"2016-05-09 00:23:00",1617097,1.426,88.2,32.27,1.395,13.6,103.6585,8.64,9.86,51.62,0,110.2,13.2,9.42,50.2
"2016-05-09 00:23:30",1617098,1.942,70.48,11.23,1.229,12.18,103.6582,8.64,9.7,52.38,0,110.2,13.21,9.42,32.5
"2016-05-09 00:24:00",1617099,2.104,55.84,8.37,1.443,13.51,103.654,8.63,9.81,52.65,0,110.2,13.2,9.41,17.8
"2016-05-09 00:24:30",1617100,1.531,77.68,12.07,1.311,13,103.6501,8.62,9.75,52.72,0,110.2,13.2,9.40,39.7
"2016-05-09 00:25:00",1617101,0.828,95.9,9.5,0.123,11.38,103.6444,8.6,9.64,52.66,0,110.2,13.25,9.39,57.9
"2016-05-09 00:25:30",1617102,0.588,116.7,8.86,0.143,11.01,103.6399,8.59,9.64,52.68,0,110.2,13.25,9.38,78.7
"2016-05-09 00:26:00",1617103,0.439,122.9,8.18,0.197,11.07,103.6376,8.59,9.63,52.67,0,110.2,13.25,9.37,84.9
"2016-05-09 00:26:30",1617104,0.77,93.1,10.62,0.154,11.41,103.6306,8.57,9.63,52.68,0,110.2,13.25,9.35,55.1
"2016-05-09 00:27:00",1617105,1.119,82,8.24,1.268,12.93,103.6252,8.56,9.75,52.78,0,110.2,13.21,9.34,44.0
"2016-05-09 00:27:30",1617106,1.113,104.3,9.25,1.257,12.89,103.6247,8.55,9.75,52.79,0,110.2,13.21,9.34,66.3
"2016-05-09 00:28:00",1617107,0.537,130.7,11.55,0.075,11.55,103.6247,8.55,9.6,52.63,0,110.2,13.25,9.34,92.7
"2016-05-09 00:28:30",1617108,1.122,121.2,10.28,1.29,13.15,103.6247,8.55,9.71,52.71,0,110.2,13.21,9.34,83.2
"2016-05-09 00:29:00",1617109,0.975,131.3,10.64,1.366,13.63,103.6247,8.55,9.69,52.65,0,110.2,13.21,9.34,93.3
"2016-05-09 00:29:30",1617110,-0.194,112,51.56,0.135,11.35,103.6247,8.55,9.6,52.54,0,110.2,13.25,9.34,74.0
"2016-05-09 00:30:00",1617111,-0.243,241.2,67.07,0.096,10.93,103.6224,8.55,9.59,52.54,0,110.2,13.25,9.33,203.2
"2016-05-09 00:30:30",1617112,0.175,244.5,55.3,0.959,11.32,103.6204,8.54,9.58,52.5,0,110.2,13.21,9.33,206.5
"2016-05-09 00:31:00",1617113,1.136,246,18.42,1.425,13.44,103.6165,8.53,9.78,52.69,0,110.2,13.2,9.32,208.0
"2016-05-09 00:31:30",1617114,0.304,270,12.91,0.997,11.96,103.6134,8.53,9.57,52.4,0,110.2,13.2,9.31,232.0
"2016-05-09 00:32:00",1617115,-0.105,291.6,15.19,0.081,10.91,103.6103,8.52,9.55,52.4,0,110.2,13.25,9.30,253.6
"2016-05-09 00:32:30",1617116,-0.281,328.4,74.4,0.046,10.94,103.6043,8.5,9.57,52.45,0,110.2,13.25,9.28,290.4
"2016-05-09 00:33:00",1617117,-0.312,281.2,61.88,0.031,11.13,103.5995,8.49,9.56,52.48,0,110.2,13.25,9.27,243.2
"2016-05-09 00:33:30",1617118,-0.289,344.4,36.31,0.051,10.87,103.5976,8.48,9.55,52.53,0,110.2,13.25,9.27,306.4
"2016-05-09 00:34:00",1617119,-0.234,294.6,19.84,0.065,11.2,103.5919,8.47,9.54,52.66,0,110.2,13.25,9.25,256.6
"2016-05-09 00:34:30",1617120,-0.293,299.4,45.89,0.058,11.34,103.5908,8.47,9.53,52.76,0,110.2,13.25,9.25,261.4
"2016-05-09 00:35:00",1617121,-0.227,38.36,27.47,0.074,11.3,103.5908,8.47,9.53,52.84,0,110.2,13.25,9.25,0.4
"2016-05-09 00:35:30",1617122,-0.099,85.6,18.36,0.273,11.98,103.5908,8.47,9.54,53,0,110.2,13.25,9.25,47.6
"2016-05-09 00:36:00",1617123,1.497,103.5,10.05,1.396,14.17,103.5908,8.47,9.66,53.12,0,110.2,13.21,9.25,65.5
"2016-05-09 00:36:30",1617124,0.82,93.8,5.838,1.214,13.3,103.5908,8.47,9.61,53.1,0,110.2,13.21,9.25,55.8
"2016-05-09 00:37:00",1617125,0.186,97.1,3.254,0.05,11.86,103.5908,8.47,9.49,53.02,0,110.2,13.26,9.25,59.1
"2016-05-09 00:37:30",1617126,1.027,85.8,6.574,1.328,13.22,103.5908,8.47,9.61,53.15,0,110.2,13.21,9.25,47.8
"2016-05-09 00:38:00",1617127,1.143,74.93,9.7,1.264,13.03,103.5908,8.47,9.61,53.1,0,110.2,13.21,9.25,36.9
"2016-05-09 00:38:30",1617128,0.969,73.33,8.2,1.333,12.97,103.5908,8.47,9.61,53.08,0,110.2,13.21,9.25,35.3
"2016-05-09 00:39:00",1617129,1.358,74.15,7.994,1.324,13.13,103.5908,8.47,9.63,53.07,0,110.2,13.21,9.25,36.2
"2016-05-09 00:39:30",1617130,0.772,58.59,12.4,1.018,12.22,103.5908,8.47,9.58,53.02,0,110.2,13.21,9.25,20.6
"2016-05-09 00:40:00",1617131,0.605,56.69,4.249,0.11,11.13,103.5908,8.47,9.49,52.89,0,110.2,13.26,9.25,18.7
"2016-05-09 00:40:30",1617132,0.675,62.52,6.588,0.055,11.15,103.5908,8.47,9.49,52.83,0,110.2,13.26,9.25,24.5
"2016-05-09 00:41:00",1617133,0.768,63.17,4.42,0.137,11.3,103.5908,8.47,9.5,52.81,0,110.2,13.26,9.25,25.2
"2016-05-09 00:41:30",1617134,0.908,62.14,5.74,0.094,11.41,103.5908,8.47,9.49,52.79,0,110.2,13.26,9.25,24.1
"2016-05-09 00:42:00",1617135,2.516,54.92,6.574,1.442,13.68,103.5905,8.47,9.59,52.85,0,110.2,13.21,9.25,16.9
"2016-05-09 00:42:30",1617136,1.846,47.3,8.34,1.27,13.09,103.5891,8.46,9.6,52.8,0,110.2,13.21,9.24,9.3
"2016-05-09 00:43:00",1617137,1.556,40.45,7.013,1.132,12.93,103.5874,8.46,9.52,52.72,0,110.2,13.21,9.24,2.5
"2016-05-09 00:43:30",1617138,1.853,42.91,9.24,1.406,13.79,103.5846,8.45,9.66,52.9,0,110.2,13.21,9.23,4.9
"2016-05-09 00:44:00",1617139,2.121,41.23,9.63,1.429,13.81,103.5775,8.43,9.59,52.82,0,110.2,13.21,9.22,3.2
"2016-05-09 00:44:30",1617140,1.874,30.62,8.69,1.35,13.1,103.5736,8.42,9.61,52.81,0,110.2,13.21,9.21,352.6
"2016-05-09 00:45:00",1617141,1.013,25.14,2.596,0.165,11.1,103.5702,8.41,9.47,52.7,0,110.2,13.26,9.20,347.1
"2016-05-09 00:45:30",1617142,0.866,32.92,4.958,0.17,10.96,103.5721,8.42,9.48,52.76,0,110.2,13.26,9.20,354.9
"2016-05-09 00:46:00",1617143,0.919,34.37,5.809,0.127,11.06,103.5699,8.41,9.48,52.79,0,110.2,13.26,9.20,356.4
"2016-05-09 00:46:30",1617144,0.728,32.16,4.759,0.107,11.26,103.5699,8.41,9.47,52.83,0,110.2,13.25,9.20,354.2
"2016-05-09 00:47:00",1617145,0.713,30.88,6.438,0.098,11.67,103.5713,8.42,9.48,52.85,0,110.2,13.26,9.20,352.9
"2016-05-09 00:47:30",1617146,1.122,43.7,6.748,0.913,12.46,103.5693,8.41,9.55,52.87,0,110.2,13.21,9.19,5.7
"2016-05-09 00:48:00",1617147,2.25,57.09,7.868,1.411,14.23,103.5674,8.41,9.56,52.8,0,110.2,13.21,9.19,19.1
"2016-05-09 00:48:30",1617148,1.884,59.05,5.975,1.317,13.83,103.5674,8.41,9.64,52.79,0,110.2,13.21,9.19,21.0
"2016-05-09 00:49:00",1617149,1.722,58.69,8.54,1.261,13.38,103.5674,8.41,9.62,52.7,0,110.2,13.2,9.19,20.7
"2016-05-09 00:49:30",1617150,2.738,61.36,10.77,1.413,14.59,103.5688,8.41,9.64,52.7,0,110.2,13.2,9.19,23.4
"2016-05-09 00:50:00",1617151,1.444,58.16,1.113,0.098,11.55,103.5674,8.41,9.52,52.6,0,110.2,13.25,9.19,20.2
"2016-05-09 00:50:30",1617152,1.531,64.3,2.913,0.163,11.32,103.5668,8.41,9.46,52.49,0,110.2,13.25,9.19,26.3
"2016-05-09 00:51:00",1617153,1.51,68.56,4.332,0.161,11.37,103.5682,8.41,9.46,52.43,0,110.2,13.25,9.19,30.6
"2016-05-09 00:51:30",1617154,1.534,58.31,5.874,0.248,11.46,103.5702,8.41,9.48,52.39,0,110.2,13.25,9.20,20.3
"2016-05-09 00:52:00",1617155,1.919,62.21,4.47,0.114,11.6,103.5719,8.42,9.47,52.25,0,110.2,13.25,9.20,24.2
"2016-05-09 00:52:30",1617156,2.714,75.07,6.721,1.28,13.49,103.5696,8.41,9.57,52.43,0,110.2,13.21,9.19,37.1
"2016-05-09 00:53:00",1617157,3.161,74.68,7.191,1.306,13.78,103.5707,8.42,9.63,52.55,0,110.2,13.21,9.20,36.7
"2016-05-09 00:53:30",1617158,3.35,77.98,7.538,1.402,14.26,103.569,8.41,9.69,52.69,0,110.2,13.21,9.19,40.0
"2016-05-09 00:54:00",1617159,3.927,73.53,8.38,1.387,14.69,103.569,8.41,9.63,52.71,0,110.3,13.21,9.19,35.5
"2016-05-09 00:54:30",1617160,2.932,64.11,6.157,1.233,13.23,103.5724,8.42,9.58,52.76,0,110.2,13.21,9.20,26.1
"2016-05-09 00:55:00",1617161,2.052,63.83,1.941,0.106,11.41,103.5778,8.43,9.48,52.79,0,110.2,13.26,9.22,25.8
"2016-05-09 00:55:30",1617162,1.83,61.21,3.177,0.043,11.36,103.5798,8.44,9.49,52.85,0,110.2,13.26,9.22,23.2
"2016-05-09 00:56:00",1617163,1.818,63.8,2.813,0.072,11.43,103.5826,8.45,9.48,52.83,0,110.2,13.26,9.23,25.8
"2016-05-09 00:56:30",1617164,1.701,61.35,5.828,0.07,11.62,103.586,8.46,9.49,52.85,0,110.2,13.26,9.24,23.3
"2016-05-09 00:57:00",1617165,2.031,62.11,6.332,1.223,13.32,103.5882,8.46,9.63,52.82,0,110.2,13.21,9.24,24.1
"2016-05-09 00:57:30",1617166,2.654,58.19,15.53,1.464,14.58,103.5891,8.46,9.65,52.32,0,110.2,13.21,9.24,20.2
"2016-05-09 00:58:00",1617167,2.741,63.29,10.83,1.38,14.5,103.5902,8.47,9.69,51.31,0,110.2,13.21,9.25,25.3
"2016-05-09 00:58:30",1617168,2.589,58.46,10.28,1.438,14.7,103.5908,8.47,9.66,51.53,0,110.2,13.21,9.25,20.5
"2016-05-09 00:59:00",1617169,1.562,32.54,13.61,1.233,13.37,103.5908,8.47,9.6,50.24,0,110.2,13.21,9.25,354.5
"2016-05-09 00:59:30",1617170,0.308,72.42,19.14,0.392,11.92,103.5911,8.47,9.48,49.76,0,110.2,13.26,9.25,34.4
"2016-05-09 01:00:00",1617171,1.189,34.39,24.76,0.61,11.6,103.5922,8.47,9.49,49.04,0,110.2,13.26,9.25,356.4
"2016-05-09 01:00:30",1617172,1.541,353.7,16.09,0.411,11.65,103.5911,8.47,9.51,48.67,0,110.2,13.26,9.25,315.7
"2016-05-09 01:01:00",1617173,0.8,359.9,17.57,0.386,11.8,103.6024,8.5,9.5,48.72,0,110.2,13.26,9.28,321.9
"2016-05-09 01:01:30",1617174,0.436,13.33,13.55,0.387,12.09,103.6128,8.52,9.52,48.82,0,110.2,13.26,9.31,335.3
"2016-05-09 01:02:00",1617175,0.494,97.5,58.83,0.507,12.02,103.6176,8.54,9.52,49.64,0,110.2,13.26,9.32,59.5
"2016-05-09 01:02:30",1617176,1.822,89.1,6.97,1.242,13.62,103.6236,8.55,9.64,51.17,0,110.2,13.22,9.33,51.1
"2016-05-09 01:03:00",1617177,2.351,88.2,9.29,1.401,15.09,103.6255,8.56,9.79,51.34,0,110.2,13.22,9.34,50.2
"2016-05-09 01:03:30",1617178,2.514,98.3,11.3,1.402,14.68,103.6261,8.56,9.75,51.14,0,110.2,13.21,9.34,60.3
"2016-05-09 01:04:00",1617179,2.665,96.7,12,1.353,14.73,103.6252,8.56,9.73,51.03,0,110.2,13.21,9.34,58.7
"2016-05-09 01:04:30",1617180,0.915,87.2,12.11,0.592,12.54,103.6252,8.56,9.64,50.71,0,110.2,13.21,9.34,49.2
"2016-05-09 01:05:00",1617181,1.932,101.6,8.27,0.504,11.31,103.6267,8.56,9.58,50.49,0,110.2,13.25,9.34,63.6
"2016-05-09 01:05:30",1617182,1.713,105.9,11.24,0.264,11.51,103.6374,8.59,9.59,50.47,0,110.2,13.25,9.37,67.9
"2016-05-09 01:06:00",1617183,2.27,112.1,10.99,0.245,11.59,103.6419,8.6,9.58,49.9,0,110.2,13.25,9.38,74.1
"2016-05-09 01:06:30",1617184,2.449,107.8,7.439,0.363,11.75,103.6481,8.61,9.59,50.02,0,110.2,13.25,9.40,69.8
"2016-05-09 01:07:00",1617185,3.828,112.1,6.846,1.32,13.64,103.6532,8.63,9.72,50.9,0,110.2,13.21,9.41,74.1
"2016-05-09 01:07:30",1617186,4.093,106.3,7.321,1.507,14.95,103.6572,8.64,9.82,51.44,0,110.2,13.21,9.42,68.3
"2016-05-09 01:08:00",1617187,4.036,108.1,8.64,1.452,14.51,103.6592,8.64,9.8,51.58,0,110.2,13.21,9.42,70.1
"2016-05-09 01:08:30",1617188,3.307,106.5,6.348,1.307,14.1,103.6597,8.64,9.83,51.66,0,110.2,13.21,9.43,68.5
"2016-05-09 01:09:00",1617189,3.262,108.6,6.087,1.236,12.86,103.6612,8.65,9.68,51.55,0,110.2,13.21,9.43,70.6
"2016-05-09 01:09:30",1617190,2.294,107.5,2.685,0.142,11.37,103.662,8.65,9.64,51.49,0,110.2,13.26,9.43,69.5
"2016-05-09 01:10:00",1617191,2.089,103.3,3.985,0.182,11.54,103.6609,8.65,9.66,51.52,0,110.2,13.26,9.43,65.3
"2016-05-09 01:10:30",1617192,2.774,111.5,4.257,0.839,12.08,103.662,8.65,9.68,51.61,0,110.2,13.21,9.43,73.5
"2016-05-09 01:11:00",1617193,3.31,118.9,10.52,1.418,13.55,103.6623,8.65,9.76,51.81,0,110.2,13.21,9.43,80.9
"2016-05-09 01:11:30",1617194,3.353,123.5,6.804,1.335,14.39,103.6618,8.65,9.85,51.81,0,110.2,13.21,9.43,85.5
"2016-05-09 01:12:00",1617195,3.484,128.8,7.288,1.374,14.54,103.6647,8.66,9.81,51.7,0,110.2,13.21,9.44,90.8
"2016-05-09 01:12:30",1617196,3.925,135.4,6.979,1.474,14.6,103.665,8.66,9.81,51.76,0,110.2,13.21,9.44,97.4
"2016-05-09 01:13:00",1617197,3.364,131.5,6.428,1.324,12.84,103.665,8.66,9.77,51.76,0,110.2,13.21,9.44,93.5
"2016-05-09 01:13:30",1617198,2.46,134.6,2.021,0.13,11.51,103.6662,8.66,9.66,51.68,0,110.2,13.26,9.44,96.6
"2016-05-09 01:14:00",1617199,2.159,135.8,1.807,0.086,11.39,103.6642,8.66,9.67,51.61,0,110.2,13.26,9.44,97.8
"2016-05-09 01:14:30",1617200,1.955,134,2.711,0.089,11.55,103.6642,8.66,9.66,51.44,0,110.2,13.26,9.44,96.0
"2016-05-09 01:15:00",1617201,2.296,136.4,6.611,1.195,13.19,103.6609,8.65,9.79,51.56,0,110.2,13.21,9.43,98.4
"2016-05-09 01:15:30",1617202,3.368,143.6,7.304,1.384,15.53,103.6592,8.64,9.94,51.6,0,110.2,13.21,9.42,105.6
"2016-05-09 01:16:00",1617203,2.777,137.2,7.806,1.401,14.22,103.6595,8.64,9.77,51.39,0,110.2,13.22,9.43,99.2
"2016-05-09 01:16:30",1617204,2.43,130.1,6.105,1.068,12.55,103.6601,8.64,9.77,51.46,0,110.2,13.21,9.43,92.1
"2016-05-09 01:17:00",1617205,2.499,132,10.18,1.406,13.07,103.6577,8.64,9.79,51.51,0,110.2,13.21,9.42,94.0
"2016-05-09 01:17:30",1617206,1.466,117.6,4.017,0.106,11.66,103.6575,8.64,9.7,51.46,0,110.2,13.26,9.42,79.6
"2016-05-09 01:18:00",1617207,1.359,114.1,2.405,0.052,11.39,103.6574,8.64,9.66,51.46,0,110.2,13.26,9.42,76.1
"2016-05-09 01:18:30",1617208,1.182,108.5,2.858,0.107,11.6,103.6566,8.64,9.67,51.5,0,110.2,13.26,9.42,70.5
"2016-05-09 01:19:00",1617209,1.097,107.5,1.988,0.144,11.77,103.6564,8.64,9.67,51.41,0,110.2,13.26,9.42,69.5
"2016-05-09 01:19:30",1617210,2.092,108.4,5.822,1.238,13.44,103.6547,8.63,9.75,51.53,0,110.2,13.22,9.41,70.4
"2016-05-09 01:20:00",1617211,2.159,108.2,6.088,1.243,13.99,103.6568,8.64,9.85,51.79,0,110.2,13.22,9.42,70.2
"2016-05-09 01:20:30",1617212,2.383,113.4,6.907,1.407,14.39,103.6553,8.63,9.78,51.77,0,110.2,13.22,9.41,75.4
"2016-05-09 01:21:00",1617213,1.98,116,7.552,1.331,13.74,103.6571,8.64,9.87,51.95,0,110.2,13.21,9.42,78.0
"2016-05-09 01:21:30",1617214,2.114,119.8,7.96,1.414,13.99,103.6568,8.64,9.86,51.96,0,110.2,13.21,9.42,81.8
"2016-05-09 01:22:00",1617215,2.033,122,7.139,1.408,13.44,103.6565,8.64,9.76,51.87,0,110.2,13.21,9.42,84.0
"2016-05-09 01:22:30",1617216,0.8,116.1,2.074,0.044,11.45,103.6552,8.63,9.66,51.71,0,110.2,13.25,9.41,78.1
"2016-05-09 01:23:00",1617217,0.887,112.8,1.744,0.115,11.4,103.6531,8.63,9.67,51.59,0,110.2,13.26,9.41,74.8
"2016-05-09 01:23:30",1617218,1.084,107.5,2.826,0.042,11.45,103.6543,8.63,9.66,51.53,0,110.2,13.26,9.41,69.5
"2016-05-09 01:24:00",1617219,1.124,107.1,1.831,0.057,11.72,103.6557,8.63,9.66,51.49,0,110.2,13.26,9.42,69.1
"2016-05-09 01:24:30",1617220,1.031,101.9,5.043,0.519,11.97,103.6575,8.64,9.73,51.49,0,110.2,13.21,9.42,63.9
"2016-05-09 01:25:00",1617221,2.288,105,11.78,1.432,14.8,103.6504,8.62,9.8,51.41,0,110.2,13.21,9.40,67.0
"2016-05-09 01:25:30",1617222,0.716,77.05,2.783,0.134,12.28,103.6459,8.61,9.69,51.1,0,110.2,13.26,9.39,39.1
"2016-05-09 01:26:00",1617223,1.341,88.4,8.18,1.197,13.51,103.6454,8.61,9.78,50.87,0,110.2,13.21,9.39,50.4
"2016-05-09 01:26:30",1617224,1.153,96.2,6.342,1.274,14.05,103.6454,8.61,9.8,50.76,0,110.2,13.22,9.39,58.2
"2016-05-09 01:27:00",1617225,1.197,93.6,7.171,1.328,13.86,103.6469,8.61,9.81,50.71,0,110.2,13.22,9.39,55.6
"2016-05-09 01:27:30",1617226,1.075,93.6,5.277,1.248,13.63,103.6463,8.61,9.71,50.63,0,110.2,13.22,9.39,55.6
"2016-05-09 01:28:00",1617227,0.286,83.8,5.525,0.035,11.66,103.6463,8.61,9.64,50.54,0,110.2,13.26,9.39,45.8
"2016-05-09 01:28:30",1617228,0.191,90.5,2.822,0.05,11.44,103.6481,8.61,9.65,50.55,0,110.2,13.26,9.40,52.5
"2016-05-09 01:29:00",1617229,0.13,85.4,6.012,0.059,11.42,103.6469,8.61,9.64,50.61,0,110.2,13.26,9.39,47.4
"2016-05-09 01:29:30",1617230,-0.043,87.5,15.74,0.122,11.52,103.6495,8.62,9.64,50.69,0,110.2,13.27,9.40,49.5
"2016-05-09 01:30:00",1617231,-0.018,112.2,6.183,0.079,11.42,103.6481,8.61,9.64,50.97,0,110.2,13.27,9.40,74.2
"2016-05-09 01:30:30",1617232,-0.233,101.4,7.066,0.061,11.8,103.6478,8.61,9.62,51.18,0,110.2,13.27,9.40,63.4
"2016-05-09 01:31:00",1617233,0.123,103.2,48.13,0.979,12.82,103.6495,8.62,9.74,51.36,0,110.2,13.22,9.40,65.2
"2016-05-09 01:31:30",1617234,0.737,220.4,25.26,1.389,13.92,103.6501,8.62,9.73,51.45,0,110.2,13.23,9.40,182.4
"2016-05-09 01:32:00",1617235,-0.137,248.8,11.35,0.099,11.95,103.6498,8.62,9.62,51.44,0,110.2,13.27,9.40,210.8
"2016-05-09 01:32:30",1617236,-0.072,241.4,24.69,0.12,11.94,103.653,8.63,9.6,51.57,0,110.2,13.27,9.41,203.4
"2016-05-09 01:33:00",1617237,0.624,201.4,23.6,1.282,13.04,103.6501,8.62,9.64,51.86,0,110.2,13.23,9.40,163.4
"2016-05-09 01:33:30",1617238,0.761,216.3,8.02,1.207,13.14,103.6507,8.62,9.71,52.06,0,110.2,13.23,9.40,178.3
"2016-05-09 01:34:00",1617239,0.834,231.1,6.395,1.138,13.31,103.6495,8.62,9.66,52.15,0,110.2,13.23,9.40,193.1
"2016-05-09 01:34:30",1617240,0.83,224.1,6.324,0.965,12.31,103.6513,8.62,9.7,52.22,0,110.2,13.23,9.40,186.1
"2016-05-09 01:35:00",1617241,1.606,238,7.203,1.431,13.36,103.6513,8.62,9.7,52.32,0,110.2,13.22,9.40,200.0
"2016-05-09 01:35:30",1617242,0.509,233.1,2.81,0.041,11.26,103.6498,8.62,9.6,52.27,0,110.2,13.27,9.40,195.1
"2016-05-09 01:36:00",1617243,0.602,236.1,3.571,0.053,11.02,103.6496,8.62,9.57,52.3,0,110.2,13.27,9.40,198.1
"2016-05-09 01:36:30",1617244,0.605,232.2,5.595,0.08,10.95,103.6493,8.62,9.58,52.3,0,110.2,13.27,9.40,194.2
"2016-05-09 01:37:00",1617245,0.743,226.2,4.642,0.546,11.23,103.6493,8.62,9.62,52.4,0,110.2,13.23,9.40,188.2
"2016-05-09 01:37:30",1617246,2.096,238.1,7.916,1.433,13.39,103.6453,8.61,9.7,52.48,0,110.2,13.22,9.39,200.1
"2016-05-09 01:38:00",1617247,1.555,242.5,8.06,1.339,12.98,103.646,8.61,9.69,52.5,0,110.2,13.22,9.39,204.5
"2016-05-09 01:38:30",1617248,1.21,238,6.204,1.208,12.84,103.6431,8.6,9.65,52.47,0,110.2,13.21,9.38,200.0
"2016-05-09 01:39:00",1617249,1.893,245.3,6.935,1.388,14.07,103.6389,8.59,9.75,52.57,0,110.2,13.21,9.37,207.3
"2016-05-09 01:39:30",1617250,0.506,239.8,6.361,0.119,11.33,103.6367,8.58,9.57,52.41,0,110.2,13.26,9.37,201.8
"2016-05-09 01:40:00",1617251,0.67,260.3,5.789,0.101,11.27,103.633,8.58,9.58,52.41,0,110.2,13.26,9.36,222.3
"2016-05-09 01:40:30",1617252,1.54,270.4,10.63,1.237,12.64,103.6223,8.55,9.67,52.5,0,110.2,13.21,9.33,232.4
"2016-05-09 01:41:00",1617253,1.619,277.5,7.651,1.284,12.71,103.6215,8.55,9.68,52.54,0,110.2,13.21,9.33,239.5
"2016-05-09 01:41:30",1617254,0.999,268.3,6.874,0.222,11.2,103.6233,8.55,9.57,52.45,0,110.2,13.26,9.33,230.3
"2016-05-09 01:42:00",1617255,1.207,272,8.16,0.13,11.08,103.623,8.55,9.57,52.51,0,110.2,13.26,9.33,234.0
"2016-05-09 01:42:30",1617256,2.113,286.4,6.265,1.184,12.66,103.6192,8.54,9.66,52.64,0,110.2,13.22,9.32,248.4
"2016-05-09 01:43:00",1617257,2.669,284.5,12.88,1.376,13.37,103.6218,8.55,9.65,52.64,0,110.2,13.22,9.33,246.5
"2016-05-09 01:43:30",1617258,1.758,275.2,7.203,1.085,12.67,103.6209,8.54,9.66,52.66,0,110.2,13.22,9.33,237.2
"2016-05-09 01:44:00",1617259,2.571,274.5,12.9,1.483,13.88,103.6122,8.52,9.64,52.74,0,110.2,13.22,9.30,236.5
"2016-05-09 01:44:30",1617260,0.997,258.9,4.772,0.145,11.61,103.6089,8.51,9.53,52.69,0,110.2,13.27,9.30,220.9
"2016-05-09 01:45:00",1617261,0.961,268.3,8.17,0.161,11.28,103.6035,8.5,9.52,52.74,0,110.2,13.27,9.28,230.3
"2016-05-09 01:45:30",1617262,1.11,264.7,6.633,0.208,11.39,103.5962,8.48,9.53,52.8,0,110.2,13.27,9.26,226.7
"2016-05-09 01:46:00",1617263,2.37,267.4,10.3,1.43,13.99,103.5905,8.47,9.66,52.99,0,110.2,13.22,9.25,229.4
"2016-05-09 01:46:30",1617264,1.422,271.4,6.393,0.977,12.26,103.5908,8.47,9.6,52.94,0,110.2,13.23,9.25,233.4
"2016-05-09 01:47:00",1617265,1.003,269.7,5.174,0.119,11.12,103.5914,8.47,9.48,52.85,0,110.2,13.27,9.25,231.7
"2016-05-09 01:47:30",1617266,2.073,260,12.46,1.325,13.46,103.5902,8.47,9.66,53.04,0,110.2,13.23,9.25,222.0
"2016-05-09 01:48:00",1617267,1.989,245.1,6.265,1.398,12.81,103.5917,8.47,9.59,53,0,110.2,13.23,9.25,207.1
"2016-05-09 01:48:30",1617268,1.396,243.7,7.425,1.193,12.69,103.5911,8.47,9.57,53.01,0,110.2,13.23,9.25,205.7
"2016-05-09 01:49:00",1617269,1.23,245.4,9.68,1.378,12.81,103.5892,8.46,9.59,53.09,0,110.2,13.23,9.25,207.4
"2016-05-09 01:49:30",1617270,0.376,273.6,9.35,0.108,11.28,103.5847,8.45,9.45,52.96,0,110.2,13.27,9.23,235.6
"2016-05-09 01:50:00",1617271,0.707,283.3,11.43,0.103,10.76,103.5801,8.44,9.44,53,0,110.2,13.27,9.22,245.3
"2016-05-09 01:50:30",1617272,1.182,296.9,3.793,0.21,10.85,103.566,8.4,9.44,53.03,0,110.2,13.27,9.19,258.9